Location: Shell Point
(30.0571°N, 84.2896°W)
Time: 12:20:28
(UTC-04:00)

Meteor 2-19 Rocket - Visible Passes

Search period start: 23 March 2017 00:00
Search period end: 02 April 2017 00:00
Orbit: 937 x 958 km, 82.5° (Epoch: 21 March)

Date Brightness Start Highest point End Pass type
(mag) Time Alt. Az. Time Alt. Az. Time Alt. Az.
23 Mar 6.5 05:32:19 10° NNE 05:37:16 26° ENE 05:42:11 10° SE visible
23 Mar 7.8 20:38:44 10° W 20:41:03 12° WNW 20:43:23 10° NW visible
24 Mar 5.6 05:48:40 10° N 05:54:25 43° E 06:00:06 10° SSE visible
25 Mar 4.7 06:05:23 10° N 06:11:27 72° E 06:17:28 10° SSE visible
26 Mar 7.3 04:40:45 10° NE 04:43:07 12° ENE 04:45:29 10° E visible
26 Mar 4.3 06:22:23 10° NNW 06:28:24 69° W 06:34:24 10° S visible
27 Mar 6.7 04:55:52 10° NNE 05:00:24 21° ENE 05:04:52 10° SE visible
27 Mar 4.8 06:39:40 10° NNW 06:45:17 40° W 06:50:52 10° SSW visible
28 Mar 5.9 05:12:03 10° NNE 05:17:34 36° E 05:23:02 10° SE visible
28 Mar 5.4 06:57:22 10° NW 07:02:05 24° W 07:06:45 10° SW visible
29 Mar 4.9 05:28:38 10° N 05:34:38 60° E 05:40:35 10° SSE visible
30 Mar 4.3 05:45:33 10° N 05:51:37 82° W 05:57:39 10° S visible
31 Mar 6.8 04:19:32 10° NNE 04:23:30 18° ENE 04:27:27 10° ESE visible
31 Mar 4.6 06:02:43 10° NNW 06:08:32 49° W 06:14:17 10° SSW visible
01 Apr 6.1 04:35:28 10° NNE 04:40:43 30° ENE 04:45:54 10° SE visible
01 Apr 5.2 06:20:16 10° NNW 06:25:21 29° W 06:30:25 10° SW visible
